Cloud_Cover
99 100 100 100 100 100 100 100 38 28 7 0 0 0 5 5 0 26 100 100 100 100 97 81 92 97 100 100 100 100 100 6 16 4 20 95 18 1 4 0 0 0 0 0 0
100 100 100 100 100 100 100 100 54 26 0 5 5 3 0 5 0 1 76 100 100 82 11 30 100 100 100 96 84 100 100 71 96 5 6 2 2 5 6 6 7 3 0 0 0
100 100 100 100 100 100 100 100 81 14 5 5 5 5 5 2 5 4 89 100 100 100 100 100 100 100 100 87 100 100 100 100 28 15 4 27 4 5 0 5 48 7 0 2 4
100 100 100 100 100 100 100 100 87 16 5 5 5 5 5 36 100 100 100 100 100 94 72 86 78 100 22 95 100 98 86 100 62 4 2 100 19 5 3 0 3 5 0 3 6
100 100 100 100 100 100 100 99 28 5 5 5 5 5 5 100 100 100 100 100 99 64 100 100 94 74 100 46 98 100 100 92 67 5 5 57 99 8 2 4 2 3 39 19 3
100 100 100 100 100 100 100 32 5 5 5 5 5 5 16 100 100 100 100 100 100 97 99 88 99 94 98 98 100 100 59 21 70 29 98 78 100 100 53 98 37 4 5 32 96
100 100 100 100 100 100 98 14 5 5 5 5 5 5 98 100 100 100 100 100 69 99 100 85 96 99 97 100 100 79 22 96 95 60 99 63 70 100 76 4 56 80 16 62 80
100 100 100 100 100 100 25 5 5 5 5 0 0 5 98 100 100 100 100 81 97 5 94 100 100 96 100 100 58 86 60 82 99 99 61 75 96 19 43 21 21 92 100 50 99
100 100 100 100 100 30 5 5 2 5 5 4 73 80 37 99 100 100 100 100 100 17 5 100 100 100 100 97 100 100 99 17 38 10 4 3 25 5 5 5 58 11 16 88 100
100 100 100 100 96 5 5 2 0 4 4 7 26 30 22 37 100 100 100 100 100 19 79 96 68 36 100 100 100 100 63 5 5 5 5 4 3 5 5 25 5 9 7 78 98
100 100 100 100 60 5 5 0 0 0 3 5 66 10 32 6 100 100 100 98 82 95 24 5 6 45 100 100 100 98 73 2 0 0 1 0 0 0 2 5 2 0 0 0 0
100 100 100 100 5 29 4 4 0 0 35 33 5 5 5 5 16 100 100 100 19 5 25 17 5 5 91 25 11 5 25 2 0 0 0 0 0 0 0 0 0 0 0 0 0
100 100 100 100 66 7 5 3 0 0 5 85 48 5 27 2 0 31 100 100 100 43 5 5 6 5 6 30 100 13 4 0 0 0 0 0 0 0 0 0 0 0 0 1 0
100 100 100 99 88 48 5 5 2 0 0 0 1 0 0 4 4 4 80 99 56 40 67 37 57 42 5 5 5 5 2 0 0 0 0 0 0 0 0 4 0 6 19 0 0
100 100 100 97 100 92 7 5 3 0 0 0 0 0 0 5 2 5 5 7 34 6 5 5 5 47 7 6 1 2 0 0 0 0 35 0 2 85 2 0 5 17 0 0 0
100 100 99 99 87 71 40 5 0 0 0 0 2 1 0 0 4 5 5 14 41 69 56 11 5 7 36 5 5 5 1 0 0 0 2 5 60 68 21 0 0 0 0 0 0
100 100 92 4 79 98 60 5 1 1 0 0 0 0 0 1 0 2 0 26 69 48 61 97 93 73 36 7 5 12 2 0 0 0 0 4 5 2 0 0 0 0 0 0 0
100 96 16 4 44 5 14 11 5 4 0 0 0 0 0 0 0 0 0 0 0 5 45 96 74 68 98 8 3 2 4 0 0 0 5 3 0 3 0 0 0 0 0 0 0
81 43 10 5 9 61 94 81 8 5 4 0 0 0 0 0 0 0 0 2 5 0 0 0 0 0 0 2 0 0 0 3 5 5 30 67 1 0 0 0 0 0 0 0 0
5 5 18 2 64 80 99 59 7 5 1 2 4 3 1 0 0 2 1 2 5 5 38 37 93 5 2 0 1 1 3 5 73 68 6 73 32 0 0 0 0 0 0 0 0
90 15 0 5 57 96 85 5 69 93 40 2 1 5 0 0 0 5 3 4 3 0 0 0 2 5 3 4 5 5 5 3 0 0 5 14 0 0 0 0 0 0 0 0 0
93 5 0 5 52 19 86 5 5 5 5 27 5 2 0 0 0 4 5 2 0 0 0 0 0 0 0 0 0 0 0 3 0 0 0 0 0 0 0 0 0 0 0 0 0
53 46 4 5 10 5 53 5 5 5 5 39 46 3 0 5 2 5 11 9 1 4 2 0 0 0 0 0 0 0 0 0 0 0 0 0 0 0 0 0 0 0 0 0 0
18 5 2 5 5 5 5 5 5 5 3 0 4 0 0 3 57 67 2 0 0 0 0 0 0 0 0 0 0 0 0 0 0 0 0 0 0 0 0 0 0 0 0 0 0
0 5 0 3 5 5 5 5 5 0 1 0 0 0 0 0 0 0 0 0 0 0 0 0 0 0 0 0 0 0 0 0 0 0 0 0 0 0 0 0 0 0 0 0 0
0 2 3 0 0 5 5 5 5 0 0 0 0 0 0 0 0 0 0 0 0 0 0 0 0 0 0 0 0 0 0 0 0 0 0 0 0 0 0 0 0 0 0 0 0
0 0 5 0 0 4 5 5 5 0 0 0 0 0 0 0 0 0 0 0 0 0 0 0 0 0 0 0 0 0 0 0 0 0 0 0 0 0 0 0 0 0 0 0 0